{"data":{"norad_id":66034,"intl_designator":"2025-233B","name":"QIANFAN-92","alt_names":[],"object_type":"PAYLOAD","status":"ACTIVE","operator":null,"country":"PRC","launch_date":"2025-10-17","launch_site_code":"TAISC","launch_vehicle":null,"mission":null,"orbit_class":"UNKNOWN","rcs_meters":null,"size_class":null,"mass_kg":null,"dimensions":null,"purposes":[],"wikipedia_slug":null,"has_3d_model":false,"image_url":null,"decayed_at":null,"tle_current":{"epoch":"2026-09-20T14:35:30.598656Z","epoch_age_seconds":131040,"freshness":"FRESH","line1":"1 66034U 25233B   26263.60799304  .00000035  00000+0  35933-4 0  9995","line2":"2 66034  89.0036  33.4976 0002430 107.8100 252.3317 13.50962024 46066","mean_motion":13.50962024,"eccentricity":0.000243,"inclination_deg":89.0036,"raan_deg":33.4976,"arg_perigee_deg":107.81,"mean_anomaly_deg":252.3317,"bstar":3.5933e-5,"rev_number":4606,"period_min":106.59070902203,"perigee_km":1066.9115512514,"apogee_km":1070.5307243064,"semimajor_km":7446.8581377789,"source":"CELESTRAK","updated_at":"2026-09-21T09:00:15.731695Z"}}}